FW5910 Weather Reports


time (UTC)temp
F
wind
direction
speed
knots
gust
knots
rain 1hr
in
rain 24hr
in
rain mn
in
humidity
%
barometer
mb
20260509191933 66 153 1.7 4.3 0.00 0.00 0.00 29 1018.0
20260509191434 65 203 2.6 7.8 0.00 0.00 0.00 27 1018.1
20260509190431 65 136 3.5 7.8 0.00 0.00 0.00 27 1018.1
20260509185933 64 132 2.6 7.8 0.00 0.00 0.00 30 1018.1
20260509185431 64 119 2.6 7.8 0.00 0.00 0.00 30 1018.0
20260509184933 63 9 2.6 4.3 0.00 0.00 0.00 29 1018.0
20260509184431 62 128 3.5 6.1 0.00 0.00 0.00 30 1018.3
20260509183933 62 128 3.5 6.1 0.00 0.00 0.00 30 1018.1
20260509182936 63 159 2.6 7.0 0.00 0.00 0.00 29 1018.3
20260509182433 62 114 2.6 7.0 0.00 0.00 0.00 30 1018.4
20260509181934 63 119 2.6 7.0 0.00 0.00 0.00 28 1018.4
20260509180936 62 136 2.6 7.8 0.00 0.00 0.00 29 1018.3
20260509180431 62 157 2.6 7.8 0.00 0.00 0.00 29 1018.5
20260509175933 62 206 3.5 7.0 0.00 0.00 0.00 30 1018.5
20260509175432 61 123 2.6 6.1 0.00 0.00 0.00 31 1018.3
20260509173933 62 176 2.6 8.7 0.00 0.00 0.00 29 1018.5
20260509173430 62 201 2.6 8.7 0.00 0.00 0.00 29 1018.5
20260509172932 62 38 1.7 5.2 0.00 0.00 0.00 31 1018.5
20260509172430 62 170 1.7 6.1 0.00 0.00 0.00 31 1018.4
20260509171936 62 205 2.6 6.1 0.00 0.00 0.00 30 1018.4
20260509171430 61 145 2.6 7.8 0.00 0.00 0.00 31 1018.3
20260509170937 61 208 2.6 7.8 0.00 0.00 0.00 29 1018.3
20260509170432 60 125 2.6 7.8 0.00 0.00 0.00 31 1018.3
20260509165932 60 123 3.5 7.8 0.00 0.00 0.00 33 1018.4
20260509165431 59 132 3.5 7.8 0.00 0.00 0.00 31 1018.4
20260509164937 60 140 2.6 7.0 0.00 0.00 0.00 31 1018.3
20260509164431 60 152 3.5 5.2 0.00 0.00 0.00 35 1018.3
20260509163933 60 124 3.5 7.8 0.00 0.00 0.00 36 1018.4
20260509163431 59 128 3.5 7.8 0.00 0.00 0.00 37 1018.4
20260509162933 59 268 3.5 7.0 0.00 0.00 0.00 33 1018.4
20260509162431 59 138 3.5 7.0 0.00 0.00 0.00 34 1018.4
20260509161933 59 109 2.6 6.1 0.00 0.00 0.00 37 1018.4
20260509161429 59 0 2.6 6.1 0.00 0.00 0.00 37 1018.4
20260509160932 58 179 3.5 8.7 0.00 0.00 0.00 39 1018.4
20260509160430 58 165 2.6 8.7 0.00 0.00 0.00 36 1018.4
20260509155931 58 132 2.6 7.0 0.00 0.00 0.00 36 1018.4
20260509155429 58 140 3.5 7.8 0.00 0.00 0.00 38 1018.3
20260509154931 58 150 2.6 7.8 0.00 0.00 0.00 38 1018.4
20260509154429 58 142 2.6 4.3 0.00 0.00 0.00 38 1018.4
20260509153934 58 134 2.6 4.3 0.00 0.00 0.00 36 1018.4
20260509153431 57 158 1.7 4.3 0.00 0.00 0.00 41 1018.4
20260509152934 56 165 1.7 3.5 0.00 0.00 0.00 42 1018.4
20260509152428 56 191 1.7 3.5 0.00 0.00 0.00 45 1018.4
20260509151933 56 181 0.9 4.3 0.00 0.00 0.00 43 1018.4
20260509151429 56 241 0.9 4.3 0.00 0.00 0.00 43 1018.3
20260509150932 56 211 0.9 3.5 0.00 0.00 0.00 43 1018.3
20260509150428 56 207 0.9 4.3 0.00 0.00 0.00 43 1018.1
20260509145428 55 221 2.6 6.1 0.00 0.00 0.00 43 1018.0
20260509144926 55 222 2.6 6.1 0.00 0.00 0.00 42 1017.9
20260509144426 54 208 1.7 5.2 0.00 0.00 0.00 44 1018.0
20260509143926 54 207 1.7 3.5 0.00 0.00 0.00 46 1017.9
20260509143426 54 209 0.9 3.5 0.00 0.00 0.00 50 1017.8
20260509142926 53 0 0.9 1.7 0.00 0.00 0.00 56 1017.8
20260509142425 53 0 0.9 1.7 0.00 0.00 0.00 58 1017.8
20260509141924 53 173 0.9 1.7 0.00 0.00 0.00 64 1017.8
20260509140925 51 0 0.0 1.7 0.00 0.00 0.00 65 1017.6
20260509140422 51 0 0.0 0.9 0.00 0.00 0.00 65 1017.6
20260509135922 50 186 0.0 1.7 0.00 0.00 0.00 65 1017.6
20260509135422 50 0 0.0 1.7 0.00 0.00 0.00 66 1017.5
20260509134422 49 0 0.0 0.9 0.00 0.00 0.00 69 1017.4
20260509132922 48 0 0.0 2.6 0.00 0.00 0.00 69 1017.2
20260509132418 48 0 0.9 2.6 0.00 0.00 0.00 69 1017.3
20260509131918 48 0 0.0 1.7 0.00 0.00 0.00 69 1017.2
20260509131418 48 0 0.0 0.0 0.00 0.00 0.00 67 1016.9
20260509130919 48 0 0.0 0.0 0.00 0.00 0.00 68 1017.1
20260509130417 48 0 0.0 0.9 0.00 0.00 0.00 67 1016.8
20260509125921 49 0 0.0 0.9 0.00 0.00 0.00 67 1016.7
20260509125423 49 0 0.0 1.7 0.00 0.00 0.00 67 1016.6
20260509124921 49 0 0.0 1.7 0.00 0.00 0.00 68 1016.5
20260509123918 49 0 0.0 0.9 0.00 0.00 0.00 66 1016.4
20260509123417 49 0 0.0 0.0 0.00 0.00 0.00 66 1016.4
20260509122919 49 0 0.0 0.0 0.00 0.00 0.00 67 1016.4
20260509122414 49 0 0.9 2.6 0.00 0.00 0.00 67 1016.3
20260509121914 49 0 1.7 4.3 0.00 0.00 0.00 68 1016.3
20260509120413 50 0 1.7 2.6 0.00 0.00 0.00 64 1016.3
20260509114911 51 219 0.9 2.6 0.00 0.00 0.00 53 1016.1
20260509113909 51 217 0.9 2.6 0.00 0.00 0.00 54 1016.0
20260509113409 52 214 0.0 1.7 0.00 0.00 0.00 55 1015.9
20260509112910 52 213 0.9 1.7 0.00 0.00 0.00 54 1015.9
20260509112410 53 213 0.9 1.7 0.00 0.00 0.00 52 1015.9
20260509111909 53 213 1.7 3.5 0.00 0.00 0.00 48 1015.7
20260509111410 53 214 1.7 4.3 0.00 0.00 0.00 47 1015.7
20260509110905 53 215 1.7 4.3 0.00 0.00 0.00 48 1015.7
20260509110405 53 214 1.7 3.5 0.00 0.00 0.00 48 1015.5
20260509105905 53 214 1.7 4.3 0.00 0.00 0.00 49 1015.5
20260509105406 53 211 1.7 4.3 0.00 0.00 0.00 49 1015.6
20260509104404 53 238 1.7 3.5 0.00 0.00 0.00 50 1015.5
20260509103903 52 250 0.9 2.6 0.00 0.00 0.00 54 1015.5
20260509103404 52 250 0.9 2.6 0.00 0.00 0.00 52 1015.4
20260509102905 52 252 0.0 2.6 0.00 0.00 0.00 52 1015.4
20260509102403 52 257 0.9 2.6 0.00 0.00 0.00 53 1015.4
20260509101906 52 257 0.9 2.6 0.00 0.00 0.00 54 1015.4
20260509101406 52 257 0.9 2.6 0.00 0.00 0.00 54 1015.4
20260509100905 52 257 0.0 2.6 0.00 0.00 0.00 57 1015.4
20260509100406 52 261 0.9 1.7 0.00 0.00 0.00 53 1015.3
20260509095903 52 261 0.9 1.7 0.00 0.00 0.00 54 1015.2
20260509094402 52 241 0.9 3.5 0.00 0.00 0.00 56 1015.1
20260509093904 52 244 1.7 3.5 0.00 0.00 0.00 54 1015.2
20260509092903 51 247 0.0 1.7 0.00 0.00 0.00 59 1015.1
20260509092402 51 247 0.0 0.9 0.00 0.00 0.00 58 1015.0
20260509091904 51 247 0.0 1.7 0.00 0.00 0.00 58 1015.0
20260509090906 52 247 0.9 2.6 0.00 0.00 0.00 58 1015.2
20260509090406 52 247 0.9 2.6 0.00 0.00 0.00 57 1015.0
20260509085905 53 248 0.9 3.5 0.00 0.00 0.00 59 1015.1
20260509085406 53 248 2.6 3.5 0.00 0.00 0.00 56 1015.0
20260509084905 52 249 1.7 3.5 0.00 0.00 0.00 57 1015.0
20260509084405 52 218 0.0 2.6 0.00 0.00 0.00 61 1014.9
20260509083904 52 191 0.0 0.0 0.00 0.00 0.00 62 1014.8
20260509083403 52 191 0.0 0.0 0.00 0.00 0.00 61 1014.8
20260509082902 52 191 0.0 0.0 0.00 0.00 0.00 61 1014.8
20260509082403 52 184 0.0 0.0 0.00 0.00 0.00 62 1014.6
20260509081404 53 184 0.0 0.0 0.00 0.00 0.00 63 1014.5
20260509080904 53 184 0.0 0.0 0.00 0.00 0.00 63 1014.6
20260509080403 53 183 0.0 0.0 0.00 0.00 0.00 61 1014.6
20260509075903 53 183 0.0 0.0 0.00 0.00 0.00 63 1014.6
20260509074904 53 183 0.0 0.0 0.00 0.00 0.00 64 1014.6
20260509074403 53 183 0.0 0.0 0.00 0.00 0.00 64 1014.8
20260509073905 53 183 0.0 0.0 0.00 0.00 0.00 64 1014.8
20260509073402 53 184 0.0 0.0 0.00 0.00 0.00 63 1014.8
20260509072903 54 179 0.0 0.0 0.00 0.00 0.00 64 1014.6
20260509071904 54 180 0.0 0.0 0.00 0.00 0.00 64 1014.6
20260509071402 54 183 0.0 0.0 0.00 0.00 0.00 61 1014.8
20260509070402 54 183 0.0 0.0 0.00 0.00 0.00 62 1014.6
20260509065902 54 183 0.0 0.0 0.00 0.00 0.00 61 1014.5
20260509065402 54 183 0.0 0.0 0.00 0.00 0.00 62 1014.5
20260509064904 54 183 0.0 0.0 0.00 0.00 0.00 61 1014.5
20260509064406 54 184 0.0 0.0 0.00 0.00 0.00 61 1014.4
20260509063902 54 184 0.0 0.0 0.00 0.00 0.00 61 1014.5
20260509063402 54 184 0.0 0.0 0.00 0.00 0.00 60 1014.5
20260509062903 54 184 0.0 0.0 0.00 0.00 0.00 60 1014.4
20260509062404 54 184 0.0 0.0 0.00 0.00 0.00 60 1014.4
20260509061908 54 185 0.0 0.0 0.00 0.00 0.00 59 1014.3
20260509060906 55 192 0.9 1.7 0.00 0.00 0.00 58 1014.2
20260509055403 55 194 0.0 0.9 0.00 0.00 0.00 56 1014.1
20260509054902 55 197 0.0 0.9 0.00 0.00 0.00 58 1014.1
20260509054403 55 216 0.0 0.9 0.00 0.00 0.00 59 1014.1
20260509053903 55 192 0.0 2.6 0.00 0.00 0.00 58 1014.0
20260509053403 56 185 0.0 2.6 0.00 0.00 0.00 56 1013.9
20260509052902 56 184 0.0 0.9 0.00 0.00 0.00 52 1013.9
20260509052404 56 184 0.9 0.9 0.00 0.00 0.00 54 1013.9
20260509051903 56 183 0.9 1.7 0.00 0.00 0.00 54 1013.8
20260509051403 56 182 0.0 1.7 0.00 0.00 0.00 53 1013.8
20260509050904 56 182 0.0 0.9 0.00 0.00 0.00 54 1013.8
20260509050403 56 182 0.0 0.9 0.00 0.00 0.00 54 1013.8
20260509045903 56 182 0.0 0.9 0.00 0.00 0.00 55 1013.7
20260509045407 57 181 0.0 0.9 0.00 0.00 0.00 56 1013.7
20260509044905 57 181 0.0 1.7 0.00 0.00 0.00 55 1013.6
20260509044404 57 181 0.0 1.7 0.00 0.00 0.00 56 1013.7
20260509043903 57 182 0.0 1.7 0.00 0.00 0.00 51 1013.7
20260509043403 58 181 0.0 0.9 0.00 0.00 0.00 51 1013.6
20260509042904 58 182 0.0 1.7 0.00 0.00 0.00 54 1013.7
20260509042403 58 182 0.0 1.7 0.00 0.00 0.00 53 1013.6
20260509041403 58 118 0.9 3.5 0.00 0.00 0.00 56 1013.4
20260509040902 58 118 1.7 4.3 0.00 0.00 0.00 57 1013.4
20260509040406 58 101 0.9 4.3 0.00 0.00 0.00 48 1013.3
20260509035402 57 328 0.9 1.7 0.00 0.00 0.00 51 1013.2
20260509033905 58 329 0.9 2.6 0.00 0.00 0.00 53 1013.1
20260509033405 58 329 0.9 2.6 0.00 0.00 0.00 53 1012.9
20260509032904 58 329 0.9 2.6 0.00 0.00 0.00 55 1012.9
20260509032402 58 329 0.9 2.6 0.00 0.00 0.00 53 1012.8
20260509031402 59 317 0.9 2.6 0.00 0.00 0.00 55 1012.6
20260509030856 59 317 0.9 2.6 0.00 0.00 0.00 53 1012.4
20260509030352 59 347 0.9 1.7 0.00 0.00 0.00 53 1012.2
20260509025844 60 347 0.0 1.7 0.00 0.00 0.00 52 1012.1
20260509024336 60 346 0.9 3.5 0.00 0.00 0.00 52 1012.0
20260509023336 61 83 1.7 7.0 0.00 0.00 0.00 50 1011.9
20260509022835 62 329 2.6 7.8 0.00 0.00 0.00 49 1011.9
20260509022335 62 339 1.7 7.8 0.00 0.00 0.00 44 1011.7
20260509021837 62 0 0.9 3.5 0.00 0.00 0.00 41 1011.7
20260509021337 62 0 0.9 3.5 0.00 0.00 0.00 43 1011.8
20260509020836 63 0 0.9 3.5 0.00 0.00 0.00 41 1011.7
20260509020334 63 0 1.7 4.3 0.00 0.00 0.00 44 1011.6
20260509015835 63 0 1.7 4.3 0.00 0.00 0.00 41 1011.6
20260509015335 63 0 1.7 4.3 0.00 0.00 0.00 43 1011.5
20260509014834 63 0 1.7 4.3 0.00 0.00 0.00 43 1011.5
20260509014335 63 0 2.6 7.0 0.00 0.00 0.00 43 1011.5
20260509013833 64 0 1.7 7.0 0.00 0.00 0.00 43 1011.5
20260509013331 65 0 1.7 5.2 0.00 0.00 0.00 33 1011.4
20260509012833 65 0 0.9 5.2 0.00 0.00 0.00 33 1011.3
20260509012330 65 0 0.9 3.5 0.00 0.00 0.00 34 1011.3
20260509011823 65 0 1.7 4.3 0.00 0.00 0.00 37 1011.3
20260509011317 65 0 1.7 7.8 0.00 0.00 0.00 38 1011.3
20260509010812 64 0 2.6 7.8 0.00 0.00 0.00 39 1011.0
20260509010305 64 0 1.7 8.7 0.00 0.00 0.00 38 1011.2
20260509005803 63 0 1.7 5.2 0.00 0.00 0.00 45 1011.0
20260509005306 64 0 1.7 4.3 0.00 0.00 0.00 44 1010.8
20260509004804 64 0 2.6 8.7 0.00 0.00 0.00 44 1010.8
20260509004307 65 0 3.5 8.7 0.00 0.00 0.00 42 1010.7
20260509003308 66 0 2.6 10.4 0.00 0.00 0.00 37 1010.7
20260509002804 67 0 0.9 3.5 0.00 0.00 0.00 39 1010.5
20260509002306 67 0 0.9 2.6 0.00 0.00 0.00 38 1010.3
20260509001303 68 329 1.7 4.3 0.00 0.00 0.00 35 1010.3
20260509000304 69 209 0.0 0.9 0.00 0.00 0.00 36 1010.4
20260508235803 69 0 0.0 0.0 0.00 0.00 0.00 35 1010.3
20260508235306 69 0 0.0 1.7 0.00 0.00 0.00 37 1010.4
20260508234803 69 0 0.0 2.6 0.00 0.00 0.00 35 1010.4
20260508234302 69 0 0.9 2.6 0.00 0.00 0.00 34 1010.4
20260508233302 69 0 0.9 2.6 0.00 0.00 0.00 35 1010.3
20260508232803 69 0 0.9 1.7 0.00 0.00 0.00 35 1010.4
20260508232306 69 0 0.9 1.7 0.00 0.00 0.00 35 1010.4
20260508225804 68 0 2.6 6.1 0.00 0.00 0.00 33 1010.6
20260508225306 68 227 2.6 7.0 0.00 0.00 0.00 35 1010.7
20260508224804 68 112 1.7 7.0 0.00 0.00 0.00 36 1010.7
20260508224306 68 167 2.6 5.2 0.00 0.00 0.00 37 1010.7
20260508223306 68 124 1.7 6.1 0.00 0.00 0.00 36 1010.8
20260508222803 68 209 2.6 5.2 0.00 0.00 0.00 36 1010.9
20260508221805 68 142 1.7 4.3 0.00 0.00 0.00 37 1011.0
20260508221302 68 209 1.7 4.3 0.00 0.00 0.00 35 1011.2
20260508220803 68 148 1.7 4.3 0.00 0.00 0.00 36 1011.2
20260508215804 68 109 2.6 6.1 0.00 0.00 0.00 35 1011.3
20260508215306 68 194 2.6 6.1 0.00 0.00 0.00 36 1011.4
20260508214803 68 131 1.7 6.1 0.00 0.00 0.00 36 1011.4
20260508214304 68 0 1.7 7.0 0.00 0.00 0.00 37 1011.5
20260508213808 68 0 2.6 7.0 0.00 0.00 0.00 37 1011.5
20260508213306 68 0 1.7 7.8 0.00 0.00 0.00 37 1011.6
20260508212807 68 0 1.7 7.8 0.00 0.00 0.00 37 1011.6
20260508212307 67 0 0.9 4.3 0.00 0.00 0.00 37 1011.7
20260508211803 67 0 0.9 4.3 0.00 0.00 0.00 38 1011.7
20260508211302 67 0 0.9 3.5 0.00 0.00 0.00 38 1011.6
20260508210302 68 0 0.9 4.3 0.00 0.00 0.00 38 1011.7
20260508205803 68 0 0.9 4.3 0.00 0.00 0.00 38 1011.7
20260508205306 68 0 1.7 4.3 0.00 0.00 0.00 39 1011.7
20260508204804 68 0 1.7 5.2 0.00 0.00 0.00 39 1011.7
20260508204300 68 0 1.7 5.2 0.00 0.00 0.00 38 1011.7
20260508203753 68 218 2.6 6.1 0.00 0.00 0.00 38 1011.7
20260508203248 68 203 1.7 6.1 0.00 0.00 0.00 37 1011.8
20260508202743 68 129 1.7 4.3 0.00 0.00 0.00 38 1011.8
20260508202235 68 123 1.7 4.3 0.00 0.00 0.00 37 1011.8
20260508201736 68 115 1.7 4.3 0.00 0.00 0.00 37 1011.7
20260508201239 68 141 1.7 4.3 0.00 0.00 0.00 37 1011.8
20260508200736 68 190 1.7 4.3 0.00 0.00 0.00 38 1011.7
20260508200235 68 155 1.7 6.1 0.00 0.00 0.00 36 1011.9
20260508195736 68 111 1.7 6.1 0.00 0.00 0.00 37 1011.8
20260508195236 68 121 2.6 5.2 0.00 0.00 0.00 37 1011.9
20260508194736 69 92 2.6 7.0 0.00 0.00 0.00 34 1011.9
20260508194236 69 134 2.6 7.0 0.00 0.00 0.00 34 1012.0
20260508193737 69 237 3.5 8.7 0.00 0.00 0.00 34 1012.1
20260508193232 69 200 3.5 8.7 0.00 0.00 0.00 34 1012.0
20260508192732 69 242 2.6 8.7 0.00 0.00 0.00 34 1012.1